Location: Middelsbur
(53.6609°N, 7.5020°E)
Time: 23:43:47
(UTC+00:00)

APEX - Pass Details

Date: 06 July 2020
Orbit: 333 x 1107 km, 69.9° (Epoch: 14 August)

Event Time Altitude Azimuth Distance (km) Brightness Sun altitude
Rises 22:49:27 0° 325° (NW) 2,166 7.7 -13.1°
Reaches altitude 10° 22:51:26 10° 325° (NW) 1,291 6.3 -13.2°
Maximum altitude 22:54:11 87° 236° (SW) 342 2.2 -13.3°
Enters shadow 22:55:26 29° 149° (SSE) 666 3.2 -13.3°
